COSMOS 1086

Satellite information

Favourite Embed

Satellite Type and Status

PAYLOADIN ORBIT

Key statistics

Satellite COSMOS 1086 at a glance.

Uptime

16978

Days in orbit

Revolutions

≈ 12.5

Per day

Orbit

LEO

Low Earth Orbit

Inclination

74.0

Latest

Satellite identification and parameters

Extended collection of information and parameters for COSMOS 1086.

Object identification

Identified? True

Debris? False

Object name: COSMOS 1086

International designator: 1979-024F

Object number (NORAD): 11301

Object ID (CCSDS): 11301

Country: COMMONWEALTH OF INDEPENDENT STATES (CIS)

Current information (Y/N): Y

RCS size: MEDIUM

Orbital parameters

Period: 115.396 minutes

Inclination: 74.0308 deg

SMA: 7851.519 km

Apoapsis: 1481.486 km

Periapsis: 1465.281 km

RAAN: 84.6731 deg

Eccentricy: 0.00103195

Argument of periapsis: 57.6595 deg

Mean anomaly: 56.0308 deg

Mean motion: 12.47878408 rev/day

Mean motion (dot): 0.00000011 rev/day2

B* drag term: 0.00018191241 1/REarth

Two-line elements (TLE)

Creation date: Sept. 6, 2025, 2:09 a.m.

Reference frame: TEME

Reference center: EARTH

Epoch: Sept. 5, 2025, 10:58 p.m. UTC

TLE line 0: 0 COSMOS 1086

TLE line 1: 1 11301U 79024F 25248.95748499 .00000011 00000-0 18191-3 0 9999

TLE line 2: 2 11301 74.0308 84.6731 0010319 57.6595 56.0308 12.47878408117190

Live tracking on map

Real-time ground track for satellite COSMOS 1086.

In-orbit conjunctions

There are no conjunctions computed for COSMOS 1086, at the moment. Check back to stay up to date, as we update our databases every day.

Go to all conjunctions

Associated space launch

Military communications satellites

COSMOS 1086 was lifted into orbit during the mission ‘Kosmos-3M | Strela-1M 169-176’, on board a Kosmos-3M space rocket.

The launch took place on March 15, 1979, 2:58 a.m. from 132/2.

For more information about the launch, click the button.

Launch to space Kosmos-3M | Strela-1M 169-176
Kosmos-3M | Strela-1M 169-176

Agency: N/A

Status: Launch Successful

Launch date: March 15, 1979, 2:58 a.m. UTC

Rocket: Kosmos-3M

Launch pad: 132/2

Location: Plesetsk Cosmodrome, Russian Federation

...

Latest news about this satellite

There are no fresh news available about this satellite. Check back as we update our databases every day.


Newsletter sign-up

Weekly statistics, charts and insights to help you stay on top of the space industry.